Powrót do katalogu

CZ-3 R/B

AktywnyHEO
NORAD 29517·ROCKET BODY·🇨🇳 China

Wystrzelony Oct 28, 2006 z Xichang Satellite Launch Center

Loading…

Następne Przeloty (najbliższe 24 godziny)

TLE

ŚwieżeSource: Space-Track

Epoka: Sep 14, 2026, 19:04 UTC

1 29517U 06048B   26257.79493452  .00000029  00000-0  12144-4 0  9994
2 29517  28.2347 312.6618 4034171 169.4182 202.6793  6.89904339400037

Śledź CZ-3 R/B w czasie rzeczywistym z AllMySat

Download on the App Store